Flight Information

DEPARTURE
LAS VEGAS, NV
Elevation:
1869
Runways:
3L/21R - 10120x200 - CONC
3R/21L - 10051x150 - CONC
Clearance Delivery:
120.9
Ground:
121.8
Tower:
132.55
DESTINATION
,
Elevation:
TPA:
1000 (est.)


6597.2 NM75° True-14° Var60° HDG

Flight Plan:
(click to file on line)

1. Type
2. Aircraft Identification
3. Aircraft Type / Special Equipment
4. True Airspeed
kts
5. Departure Airport
(ICAO code)
6. Arriving Airport
(ICAO code)
7. Cruising Altitude
ft
8. Alternate Airport
(ICAO code)
9. Route of Flight
10. Remarks


00:00:00 Departure ATIS: Destination ATIS:

Clearance Limit:
Route:
Altitude: Expect in minutes
Frequency:
Transponder: (7500 Hijack / 7600 Lost Comms / 7700 Emergency)


KLSV 110258Z AUTO 25005KT 10SM CLR 28/M15 A2971 RMK AO2 SLP043 T02821151 55002 $
Time: 2021-04-11T02:58:00Z
1618111211
Winds: 250 @ 5 kts
Visibility: 10.0 sm
Clouds (AGL): CLR
Temperature: 28.2 C
Dew Point: -15.1 C
Pressure: 29.71063 in Hgbr


Notes:

Data extracted from FAA Digital Chart Supplement. Effective: 0901Z Thursday, Feb 25, 2021 to 0901Z Thursday, APR 22, 2021
Current ATIS data is provided courtisy of PilotEdge.